Regional Weather Roundup
Issued by NWS

Home | Current Version | Previous Version | Graphics & Text | Print | Product List | Glossary On
Versions: 1 2 3 4 5 6 7 8 9 10 11 12 13 14 15 16 17 18 19 20 21 22 23 24 25 26 27 28 29 30 31 32 33 34 35 36 37 38 39 40 41 42 43 44 45 46 47 48 49 50
000
ASUS45 KABQ 242201
RWRNM
NEW MEXICO REGIONAL WEATHER ROUNDUP
NATIONAL WEATHER SERVICE ALBUQUERQUE NM
400 PM MDT SUN MAY 24 2015

NOTE: "FAIR" MEANS FEW OR NO CLOUDS BELOW 12,000 FEET AGL WITH NO
       SIGNIFICANT WEATHER OR OBSTRUCTIONS TO VISION.

      THIS PRODUCT IS RELEASED AS TWO VERSIONS.  ONE VERSION NEAR
      THE TOP OF THE HOUR CONTAINING PRELIMINARY DATA FROM ALBUQUERQUE
      AND OTHER STATIONS.  A FINAL VERSION WITH ADDITIONAL DATA IS
      ISSUED ABOUT 10 MINUTES AFTER THE HOUR.

NMZ501-503-504-510>518-242300-
NORTHWEST PLATEAU/NORTHCENTRAL MOUNTAINS

CITY           SKY/WX    TMP DP  RH WIND       PRES   REMARKS
FARMINGTON     MOSUNNY   62  38  40 W14G21    29.93F
SANTA FE       CLOUDY    57  35  43 SW12      29.96S
TAOS           PTSUNNY   57  36  44 NW12G23   29.97F

$$
NMZ402-403-502-505>509-242300-
WESTCENTRAL MOUNTAINS/SOUTHWEST MOUNTAINS

CITY           SKY/WX    TMP DP  RH WIND       PRES   REMARKS
GALLUP         CLOUDY    52  41  66 W8        30.02F
GRANTS         CLOUDY    62  33  33 NW15G23   29.99F
SILVER CITY      N/A     72  21  15 NW14G26   29.97F

$$
NMZ407-409-411-412-242300-
SOUTHERN DESERTS

CITY           SKY/WX    TMP DP  RH WIND       PRES   REMARKS
LORDSBURG      FAIR      75  27  16 W14       29.90F
DEMING         SUNNY     78  23  13 W15G26    29.89F
ALAMOGORDO     SUNNY     81  23  12 SW10G21   29.87F
T OR C         MOSUNNY   76  22  13 SW8G26    29.84F

$$
NMZ519>523-242300-
CENTRAL VALLEYS/CENTRAL HIGHLANDS

CITY           SKY/WX    TMP DP  RH WIND       PRES   REMARKS
ALBUQUERQUE    PTSUNNY   67  38  34 NE14G22   29.91F
DOUBLE EAGLE   MOSUNNY   63  39  42 NW10G18   29.94F
MORIARTY ARPT  MOCLDY    65  35  32 NW20G28   29.94S
CLINES CORNERS PTSUNNY   63  30  28 NW16      29.93
BELEN          MOCLDY    72  33  23 N14       29.87F
SOCORRO        NOT AVBL

$$
NMZ524>526-539-540-242300-
SOUTHCENTRAL MOUNTAINS

CITY           SKY/WX    TMP DP  RH WIND       PRES   REMARKS
RUIDOSO        NOT AVBL

$$
NMZ527>531-242300-
NORTHEAST HIGHLANDS/NORTHEAST PLAINS

CITY           SKY/WX    TMP DP  RH WIND       PRES   REMARKS
LAS VEGAS      MOSUNNY   60  34  37 W25G33    29.91F
RATON          MOSUNNY   65  34  31 SW20G28   29.83F
CLAYTON        MOSUNNY   72  39  30 S25G33    29.78F

$$
NMZ532>537-242300-
EASTCENTRAL PLAINS

CITY           SKY/WX    TMP DP  RH WIND       PRES   REMARKS
TUCUMCARI      SUNNY     78  35  21 SW18G32   29.77F
CANNON AFB     NOT AVBL
CLOVIS AIRPORT MOSUNNY   75  39  27 SW16G26   29.82F

$$
NMZ028-029-538-242300-
SOUTHEAST PLAINS

CITY           SKY/WX    TMP DP  RH WIND       PRES   REMARKS
ROSWELL        SUNNY     84  27  12 S8        29.78F
ARTESIA        SUNNY     84  27  12 SW16G35   29.80F
CARLSBAD       MOSUNNY   84  25  11 SW10G24   29.80F
HOBBS          SUNNY     79  32  18 S14G22    29.85F


$$



USA.gov is the U.S. government's official web portal to all federal, state and local government web resources and services.